�N����,����,�~����,�C��,���x,�C��,����,���ϕ���,�ő�u�ԕ���,�ő厞����,���˗�,�I�_���x,�n�����x,�ő啗���N��,DTYPE
"16/11/06","00:10",0.0,9.2,96.4,1010.2,292.2,1.1,1.7,326.7,0.00,8.7,13.6,"00:00:24",1
"16/11/06","00:20",0.0,9.3,96.5,1010.2,299.7,1.3,1.6,319.4,0.00,8.8,13.7,"00:10:48",1
"16/11/06","00:30",0.0,9.4,96.3,1010.0,298.5,1.1,1.7,325.9,0.00,8.9,13.7,"00:28:06",1
"16/11/06","00:40",0.0,9.2,96.2,1010.2,296.5,1.2,1.8,321.4,0.00,8.7,13.7,"00:38:30",1
"16/11/06","00:50",0.0,9.2,96.2,1010.0,304.6,0.8,1.6,320.9,0.00,8.7,13.7,"00:40:08",1
"16/11/06","01:00",0.0,8.9,96.0,1010.4,298.6,1.2,2.1,317.7,0.00,8.3,13.8,"00:57:36",1
"16/11/06","01:10",0.0,8.7,96.1,1010.2,314.8,1.5,1.9,320.0,0.00,8.2,13.6,"01:06:58",1
"16/11/06","01:20",0.0,8.3,96.0,1010.2,310.4,1.5,1.9,317.5,0.00,7.7,13.6,"01:16:42",1
"16/11/06","01:30",0.0,8.1,96.4,1010.7,306.4,1.5,2.1,322.6,0.00,7.6,13.5,"01:29:06",1
"16/11/06","01:40",0.0,8.1,96.7,1010.4,305.7,1.3,1.8,318.7,0.00,7.6,13.4,"01:39:46",1
"16/11/06","01:50",0.0,8.1,97.0,1010.4,305.5,1.3,1.7,303.4,0.00,7.7,13.4,"01:40:46",1
"16/11/06","02:00",0.0,8.1,97.3,1010.4,312.4,1.8,2.2,315.6,0.00,7.7,13.3,"01:53:16",1
"16/11/06","02:10",0.0,8.3,97.6,1010.4,302.1,0.8,1.3,307.7,0.00,8.0,13.3,"02:00:16",1
"16/11/06","02:20",0.0,8.6,98.0,1010.7,302.7,0.7,1.4,259.4,0.00,8.3,13.4,"02:10:16",1
"16/11/06","02:30",0.0,9.3,96.9,1010.7,289.0,1.0,1.2,279.3,0.00,8.9,13.2,"02:21:54",1
"16/11/06","02:40",0.0,9.5,97.6,1010.7,297.9,0.7,1.4,325.5,0.00,9.2,13.3,"02:31:00",1
"16/11/06","02:50",0.0,9.7,97.7,1010.7,293.1,1.5,1.9,320.0,0.00,9.4,13.5,"02:41:08",1
"16/11/06","03:00",0.0,9.9,97.5,1010.9,281.1,1.1,1.4,317.8,0.00,9.6,13.6,"02:53:20",1
"16/11/06","03:10",0.0,9.9,97.3,1010.9,312.1,1.1,1.6,334.5,0.00,9.5,13.4,"03:02:10",1
"16/11/06","03:20",0.0,9.7,97.2,1010.9,284.4,1.0,1.3,294.7,0.00,9.3,13.5,"03:18:56",1
"16/11/06","03:30",0.0,9.8,97.3,1010.9,288.4,0.8,1.4,325.3,0.00,9.4,13.5,"03:24:24",1
"16/11/06","03:40",0.0,9.8,97.2,1011.2,296.2,1.2,1.9,320.1,0.00,9.4,13.4,"03:34:36",1
"16/11/06","03:50",0.0,9.7,97.0,1011.4,295.0,1.2,2.2,320.5,0.00,9.3,13.5,"03:40:52",1
"16/11/06","04:00",0.0,9.4,96.9,1011.2,297.2,1.1,1.4,311.1,0.00,9.0,13.6,"03:50:32",1
"16/11/06","04:10",0.0,9.2,97.0,1011.6,295.1,1.1,1.6,314.6,0.00,8.8,13.3,"04:07:18",1
"16/11/06","04:20",0.0,8.9,97.0,1011.6,311.1,0.7,1.3,322.9,0.00,8.5,13.4,"04:18:54",1
"16/11/06","04:30",0.0,8.7,97.4,1011.6,293.6,1.2,1.7,332.1,0.00,8.4,13.4,"04:28:06",1
"16/11/06","04:40",0.0,8.6,97.6,1011.4,306.1,1.0,1.4,290.1,0.00,8.3,13.4,"04:35:56",1
"16/11/06","04:50",0.0,8.9,97.9,1011.4,307.6,1.2,2.0,321.5,0.00,8.6,13.2,"04:43:34",1
"16/11/06","05:00",0.0,9.1,98.1,1011.6,289.7,0.7,1.0,279.6,0.00,8.9,13.3,"04:55:14",1
"16/11/06","05:10",0.0,9.5,97.2,1011.9,298.6,1.0,1.4,304.8,0.00,9.1,13.3,"05:08:58",1
"16/11/06","05:20",0.0,9.4,97.9,1012.1,294.7,1.0,1.6,316.5,0.00,9.1,13.4,"05:13:08",1
"16/11/06","05:30",0.0,9.5,98.0,1012.1,293.4,1.1,1.8,308.5,0.00,9.2,13.2,"05:24:12",1
"16/11/06","05:40",0.0,9.8,97.0,1012.3,282.8,0.7,1.3,318.6,0.00,9.4,13.2,"05:34:52",1
"16/11/06","05:50",0.0,9.7,97.8,1012.6,312.3,0.7,1.3,297.4,0.00,9.4,13.4,"05:41:36",1
"16/11/06","06:00",0.0,9.8,97.9,1012.6,317.7,1.0,1.8,334.3,0.00,9.5,13.4,"05:56:16",1
"16/11/06","06:10",0.0,9.9,98.0,1012.8,290.8,1.1,1.6,304.1,0.00,9.6,13.5,"06:04:52",1
"16/11/06","06:20",0.0,10.2,97.0,1012.8,313.3,0.7,1.6,315.7,0.00,9.8,13.5,"06:14:00",1
"16/11/06","06:30",0.0,10.2,97.7,1013.3,286.9,0.8,1.4,307.7,0.00,9.9,13.4,"06:28:54",1
"16/11/06","06:40",0.0,10.3,97.8,1013.3,306.7,1.3,1.7,324.5,0.00,10.0,13.5,"06:36:58",1
"16/11/06","06:50",0.0,10.4,97.8,1013.0,308.7,0.6,1.3,312.6,0.00,10.1,13.4,"06:40:36",1
"16/11/06","07:00",0.0,10.5,97.9,1013.0,292.1,1.0,1.2,295.4,0.00,10.2,13.4,"06:59:12",1
"16/11/06","07:10",0.0,10.6,97.8,1013.0,300.0,1.1,1.7,322.2,0.00,10.3,13.4,"07:09:22",1
"16/11/06","07:20",0.0,10.7,97.7,1013.8,315.9,0.8,1.3,322.1,0.00,10.4,13.5,"07:14:36",1
"16/11/06","07:30",0.0,10.9,97.7,1013.8,282.2,0.6,1.2,309.7,0.00,10.6,13.3,"07:21:52",1
"16/11/06","07:40",0.0,11.0,97.6,1014.0,286.1,1.0,1.3,309.6,0.00,10.7,13.6,"07:30:56",1
"16/11/06","07:50",0.0,11.2,97.5,1014.2,307.3,1.2,1.7,318.7,0.00,10.9,13.5,"07:46:08",1
"16/11/06","08:00",0.0,11.4,97.3,1014.2,310.2,1.0,1.2,312.8,0.01,11.0,13.5,"07:53:04",1
"16/11/06","08:10",0.0,11.6,97.0,1014.0,264.1,0.5,1.1,312.2,0.03,11.2,13.6,"08:00:08",1
"16/11/06","08:20",0.0,11.8,96.4,1014.7,281.2,0.5,1.3,253.5,0.05,11.3,13.8,"08:11:52",1
"16/11/06","08:30",0.0,12.0,95.6,1015.2,287.4,0.7,1.6,319.2,0.02,11.4,13.8,"08:22:40",1
"16/11/06","08:40",0.0,12.2,95.0,1014.9,293.0,0.8,1.2,315.5,0.03,11.5,14.0,"08:33:52",1
"16/11/06","08:50",0.0,12.3,94.5,1014.9,305.0,0.7,1.3,312.2,0.01,11.5,13.9,"08:43:52",1
"16/11/06","09:00",0.0,12.4,93.8,1015.4,291.5,1.0,1.4,331.4,0.02,11.5,14.1,"08:55:12",1
"16/11/06","09:10",0.0,12.4,93.4,1015.6,321.8,1.1,1.6,337.7,0.01,11.4,13.9,"09:08:40",1
"16/11/06","09:20",0.0,12.5,92.8,1015.9,327.6,1.0,1.9,338.5,0.02,11.4,13.9,"09:16:08",1
"16/11/06","09:30",0.0,12.6,92.5,1015.9,304.9,0.7,1.4,307.8,0.01,11.5,14.0,"09:21:12",1
"16/11/06","09:40",0.0,12.9,92.8,1015.9,299.2,0.8,1.3,309.8,0.02,11.8,13.9,"09:33:36",1
"16/11/06","09:50",0.0,13.2,92.9,1015.9,325.7,0.6,1.2,318.4,0.01,12.1,14.1,"09:40:08",1
"16/11/06","10:00",0.0,13.4,91.9,1016.1,322.9,0.7,2.2,321.3,0.01,12.2,14.3,"09:57:20",1
"16/11/06","10:10",0.0,13.7,91.1,1016.4,304.3,0.8,1.4,317.9,0.02,12.3,14.2,"10:01:44",1
"16/11/06","10:20",0.0,14.0,89.7,1016.6,313.6,1.3,2.7,315.8,0.01,12.4,14.2,"10:10:02",1
"16/11/06","10:30",0.0,14.2,87.4,1016.6,323.7,1.7,3.4,331.9,0.03,12.2,14.3,"10:25:12",1
"16/11/06","10:40",0.0,14.6,83.5,1016.6,309.3,1.5,2.6,318.3,0.06,11.9,14.3,"10:34:16",1
"16/11/06","10:50",0.0,14.7,81.4,1016.8,312.5,1.2,2.8,316.3,0.02,11.6,14.3,"10:48:24",1
"16/11/06","11:00",0.0,14.5,80.4,1016.8,318.9,1.5,2.6,333.1,0.01,11.2,14.2,"10:54:08",1
"16/11/06","11:10",0.0,14.4,80.1,1016.6,323.7,1.5,3.3,342.9,0.02,11.1,14.6,"11:02:00",1
"16/11/06","11:20",0.0,14.3,79.8,1016.8,300.8,1.5,2.9,310.3,0.04,10.9,14.4,"11:18:40",1
"16/11/06","11:30",0.0,14.4,79.3,1016.8,327.6,1.5,2.9,321.5,0.03,10.9,14.5,"11:27:52",1
"16/11/06","11:40",0.0,14.3,78.0,1016.6,309.6,1.3,2.0,359.8,0.03,10.6,14.5,"11:38:48",1
"16/11/06","11:50",0.0,14.4,77.9,1016.6,286.3,1.0,1.9,241.7,0.03,10.6,14.4,"11:42:32",1
"16/11/06","12:00",0.0,14.2,78.0,1016.6,299.0,1.1,2.8,338.6,0.02,10.5,14.5,"11:56:56",1
"16/11/06","12:10",0.0,14.2,76.8,1016.6,333.2,1.7,5.2,341.5,0.03,10.2,14.5,"12:08:00",1
"16/11/06","12:20",0.0,14.2,76.4,1016.4,335.2,1.5,3.2,9.4,0.02,10.2,14.5,"12:12:08",1
"16/11/06","12:30",0.0,14.2,75.4,1016.4,335.4,1.6,4.2,346.4,0.03,10.0,14.6,"12:26:10",1
"16/11/06","12:40",0.0,14.2,75.1,1016.8,306.2,1.5,3.1,340.9,0.04,9.9,14.6,"12:30:48",1
"16/11/06","12:50",0.0,14.6,73.5,1016.6,316.0,1.3,2.6,334.8,0.09,10.0,14.8,"12:42:16",1
"16/11/06","13:00",0.0,14.6,73.8,1016.6,319.4,1.3,2.6,341.5,0.03,10.0,14.5,"12:56:24",1
"16/11/06","13:10",0.0,14.2,70.4,1016.8,352.9,2.6,5.0,323.0,0.02,8.9,14.7,"13:00:40",1
"16/11/06","13:20",0.0,14.2,70.8,1016.8,352.4,2.1,4.1,331.2,0.06,9.0,14.6,"13:11:04",1
"16/11/06","13:30",0.0,14.4,70.2,1016.6,346.2,1.5,2.5,348.4,0.06,9.1,14.5,"13:24:56",1
"16/11/06","13:40",0.0,14.5,69.2,1016.8,337.6,1.2,3.1,345.8,0.08,9.0,14.7,"13:39:36",1
"16/11/06","13:50",0.0,14.5,68.2,1017.3,355.4,2.3,4.0,342.9,0.06,8.8,14.7,"13:42:48",1
"16/11/06","14:00",0.0,14.5,66.3,1017.1,344.7,1.8,3.9,346.7,0.07,8.3,14.7,"13:55:28",1
"16/11/06","14:10",0.0,14.6,65.3,1017.1,334.3,2.0,3.5,358.8,0.09,8.2,14.6,"14:02:32",1
"16/11/06","14:20",0.0,15.5,62.2,1017.1,341.0,2.1,4.0,336.1,0.23,8.3,14.7,"14:14:00",1
"16/11/06","14:30",0.0,15.0,60.2,1016.8,339.0,1.6,3.2,344.3,0.10,7.4,14.8,"14:27:20",1
"16/11/06","14:40",0.0,15.1,60.8,1017.1,339.1,2.1,4.9,338.4,0.16,7.6,14.9,"14:36:24",1
"16/11/06","14:50",0.0,15.0,61.0,1017.1,324.9,2.1,4.4,346.1,0.14,7.6,14.9,"14:45:20",1
"16/11/06","15:00",0.0,14.9,56.8,1017.3,333.2,2.1,5.7,7.1,0.17,6.5,15.0,"14:59:12",1
"16/11/06","15:10",0.0,14.6,58.4,1017.5,346.9,2.5,5.8,344.7,0.10,6.6,15.0,"15:03:36",1
"16/11/06","15:20",0.0,14.3,58.3,1017.5,347.8,2.2,5.5,348.0,0.08,6.3,14.9,"15:11:12",1
"16/11/06","15:30",0.0,14.4,59.6,1017.3,340.2,1.7,3.6,344.5,0.10,6.7,14.8,"15:23:36",1
"16/11/06","15:40",0.0,14.4,60.0,1017.5,345.1,2.0,4.5,345.0,0.07,6.8,14.9,"15:32:32",1
"16/11/06","15:50",0.0,14.6,57.9,1017.5,340.3,1.7,3.9,327.1,0.06,6.5,14.8,"15:40:56",1
"16/11/06","16:00",0.0,14.1,58.4,1018.0,319.2,2.0,4.3,328.0,0.04,6.1,14.8,"15:54:00",1
"16/11/06","16:10",0.0,13.4,60.0,1017.8,325.7,2.0,4.3,340.4,0.02,5.8,14.7,"16:06:16",1
"16/11/06","16:20",0.0,13.0,61.0,1017.8,311.6,2.1,3.5,352.2,0.01,5.7,14.7,"16:10:32",1
"16/11/06","16:30",0.0,12.7,63.5,1017.8,313.5,2.0,3.7,350.0,0.00,6.0,14.7,"16:28:48",1
"16/11/06","16:40",0.0,12.4,64.2,1017.8,313.7,1.7,3.1,332.1,0.00,5.9,14.7,"16:37:52",1
"16/11/06","16:50",0.0,12.1,65.1,1017.5,302.1,1.7,3.2,343.3,0.00,5.8,14.7,"16:40:56",1
"16/11/06","17:00",0.0,11.9,65.9,1017.8,295.6,1.6,2.7,315.4,0.00,5.8,14.5,"16:54:40",1
"16/11/06","17:10",0.0,11.5,67.3,1017.8,296.9,1.3,2.4,337.7,0.00,5.7,14.2,"17:09:12",1
"16/11/06","17:20",0.0,11.3,68.0,1018.0,322.2,1.5,2.7,342.4,0.00,5.7,14.4,"17:14:42",1
"16/11/06","17:30",0.0,11.0,68.8,1018.2,300.4,1.2,1.9,315.7,0.00,5.5,14.2,"17:23:04",1
"16/11/06","17:40",0.0,10.5,71.1,1018.2,301.0,1.3,1.9,325.1,0.00,5.5,14.0,"17:31:30",1
"16/11/06","17:50",0.0,10.2,72.9,1018.7,302.6,1.3,2.1,262.4,0.00,5.6,14.0,"17:44:34",1
"16/11/06","18:00",0.0,9.9,74.3,1018.5,304.1,1.2,1.9,326.9,0.00,5.6,14.0,"17:50:52",1
"16/11/06","18:10",0.0,9.2,77.5,1018.5,316.9,1.8,2.9,349.7,0.00,5.5,13.9,"18:06:42",1
"16/11/06","18:20",0.0,9.2,79.5,1018.7,302.6,1.6,3.5,251.5,0.00,5.9,13.9,"18:11:20",1
"16/11/06","18:30",0.0,8.9,79.8,1018.7,310.1,1.3,2.4,324.2,0.00,5.6,13.9,"18:22:48",1
"16/11/06","18:40",0.0,8.7,80.8,1018.5,307.6,1.7,2.2,326.5,0.00,5.6,13.5,"18:39:20",1
"16/11/06","18:50",0.0,8.5,82.2,1019.0,313.8,1.7,2.7,341.3,0.00,5.7,13.6,"18:48:32",1
"16/11/06","19:00",0.0,8.4,82.3,1018.7,313.8,1.6,2.2,335.8,0.00,5.6,13.6,"18:50:24",1
"16/11/06","19:10",0.0,8.4,81.9,1018.7,311.7,1.7,2.2,329.1,0.00,5.5,13.5,"19:03:28",1
"16/11/06","19:20",0.0,8.1,82.8,1019.0,316.2,1.2,2.1,323.7,0.00,5.4,13.5,"19:16:40",1
"16/11/06","19:30",0.0,7.7,84.4,1018.7,314.8,1.2,2.0,294.8,0.00,5.3,13.2,"19:28:48",1
"16/11/06","19:40",0.0,7.5,85.8,1018.7,306.4,1.6,2.5,305.4,0.00,5.3,13.4,"19:30:40",1
"16/11/06","19:50",0.0,7.3,87.2,1018.2,302.9,2.0,2.9,321.3,0.00,5.4,13.3,"19:45:04",1
"16/11/06","20:00",0.0,7.5,87.5,1018.5,314.8,2.0,3.3,328.8,0.00,5.6,13.1,"19:57:20",1
"16/11/06","20:10",0.0,7.6,87.9,1018.2,312.8,2.1,2.8,332.5,0.00,5.8,13.1,"20:01:52",1
"16/11/06","20:20",0.0,7.7,87.2,1018.7,291.7,1.2,2.6,318.0,0.00,5.7,13.1,"20:19:44",1
"16/11/06","20:30",0.0,7.2,88.0,1018.7,301.3,1.3,2.9,320.8,0.00,5.4,12.9,"20:20:02",1
"16/11/06","20:40",0.0,7.0,89.0,1018.7,307.5,1.5,2.9,340.8,0.00,5.4,13.0,"20:32:40",1
"16/11/06","20:50",0.0,6.7,89.9,1018.7,300.6,1.7,3.1,311.0,0.00,5.2,12.6,"20:48:32",1
"16/11/06","21:00",0.0,6.5,90.7,1019.0,287.6,1.3,2.1,318.8,0.00,5.1,12.9,"20:50:40",1
"16/11/06","21:10",0.0,6.3,91.6,1018.7,295.7,1.7,3.2,316.1,0.00,5.1,12.7,"21:04:24",1
"16/11/06","21:20",0.0,6.1,92.4,1018.7,290.3,1.5,1.9,259.3,0.00,5.0,12.7,"21:18:48",1
"16/11/06","21:30",0.0,6.1,93.5,1018.5,305.0,1.7,2.1,316.1,0.00,5.2,12.6,"21:22:00",1
"16/11/06","21:40",0.0,6.2,94.0,1018.7,308.7,1.7,2.8,317.2,0.00,5.3,12.5,"21:36:56",1
"16/11/06","21:50",0.0,6.1,94.2,1018.5,303.8,2.1,2.9,308.6,0.00,5.3,12.5,"21:40:16",1
"16/11/06","22:00",0.0,6.2,94.8,1019.0,297.7,1.6,2.0,309.4,0.00,5.5,12.5,"21:55:12",1
"16/11/06","22:10",0.0,6.3,95.0,1019.2,298.3,1.8,2.7,317.5,0.00,5.6,12.6,"22:04:32",1
"16/11/06","22:20",0.0,6.3,95.5,1019.0,295.9,1.2,2.1,316.0,0.00,5.7,12.3,"22:19:28",1
"16/11/06","22:30",0.0,6.7,95.5,1018.7,309.7,1.2,2.5,320.3,0.00,6.1,12.5,"22:22:56",1
"16/11/06","22:40",0.0,7.0,95.4,1018.7,285.6,1.5,1.9,264.3,0.00,6.4,12.4,"22:33:36",1
"16/11/06","22:50",0.0,7.1,95.4,1018.7,300.4,1.3,1.9,297.6,0.00,6.5,12.6,"22:49:36",1
"16/11/06","23:00",0.0,7.4,95.6,1019.0,311.9,1.8,2.5,324.9,0.00,6.8,12.4,"22:54:56",1
"16/11/06","23:10",0.0,7.7,95.3,1019.0,309.1,1.7,2.5,325.1,0.00,7.0,12.3,"23:04:26",1
"16/11/06","23:20",0.0,7.8,95.3,1019.0,295.6,1.1,1.9,320.6,0.00,7.1,12.4,"23:19:44",1
"16/11/06","23:30",0.0,7.9,95.2,1019.2,317.6,1.5,2.0,324.7,0.00,7.2,12.5,"23:25:36",1
"16/11/06","23:40",0.0,8.1,94.8,1019.2,334.1,1.3,1.9,341.1,0.00,7.4,12.7,"23:36:02",1
"16/11/06","23:50",0.0,8.1,94.2,1019.7,290.5,1.0,1.4,305.9,0.00,7.3,12.3,"23:40:16",1
"16/11/06","24:00",0.0,7.9,94.1,1019.4,306.6,1.6,2.2,322.0,0.00,7.1,12.4,"23:54:56",1
